CEST,Max TemperatureF,Mean TemperatureF,Min TemperatureF,Max Dew PointF,MeanDew PointF,Min DewpointF,Max Humidity, Mean Humidity, Min Humidity, Max Sea Level PressureIn, Mean Sea Level PressureIn, Min Sea Level PressureIn, Max VisibilityMiles, Mean VisibilityMiles, Min VisibilityMiles, Max Wind SpeedMPH, Mean Wind SpeedMPH, Max Gust SpeedMPH,PrecipitationIn, CloudCover, Events, WindDirDegrees
2013-5-1,61,49,37,44,39,34,93,66,37,30.30,30.21,30.12,19,7,6,15,10,,0.00,,,47
2013-5-2,60,52,44,46,41,36,76,65,45,30.18,30.13,30.09,19,7,6,14,10,,0.00,7,Rain,40
2013-5-3,64,52,40,52,45,38,93,74,44,30.12,30.07,30.04,12,6,3,9,5,,0.00,2,,4
2013-5-4,60,51,42,48,44,37,100,73,46,30.14,30.05,30.01,19,7,4,22,10,31,0.00,3,,240
2013-5-5,64,54,43,52,46,43,94,74,46,30.22,30.18,30.12,17,6,4,12,7,,0.00,3,,237
2013-5-6,68,55,42,50,47,41,100,74,40,30.21,30.13,30.06,11,6,3,11,4,,0.00,,,345
2013-5-7,75,60,45,59,52,45,100,76,39,30.06,29.99,29.92,9,5,2,16,5,,0.01,6,Rain,45
2013-5-8,70,62,55,59,55,52,100,84,53,29.89,29.80,29.74,14,5,1,18,7,33,0.31,6,Rain-Thunderstorm,195
2013-5-9,59,54,50,52,46,39,94,73,44,29.93,29.87,29.83,18,7,3,17,11,,0.00,6,Rain,230
2013-5-10,59,54,50,50,46,39,94,72,47,29.98,29.87,29.77,17,7,4,25,17,37,0.00,7,Rain,225
2013-5-11,56,52,48,48,46,43,94,81,53,29.98,29.88,29.80,16,7,4,23,14,38,0.12,7,Rain,222
2013-5-12,54,48,43,46,43,41,93,80,58,30.01,29.92,29.80,18,7,6,17,12,,0.08,6,Rain,252
2013-5-13,56,51,46,52,47,41,100,83,58,29.95,29.86,29.80,13,6,2,22,15,30,0.04,6,Rain,234
2013-5-14,54,48,42,48,44,41,94,84,62,29.80,29.73,29.56,17,7,4,18,11,,0.12,6,Rain,209
2013-5-15,61,52,44,48,45,41,94,76,44,29.59,29.49,29.42,16,7,6,21,13,28,0.01,5,Rain,192
2013-5-16,51,44,38,49,45,39,100,94,76,29.61,29.54,29.47,9,6,4,13,5,,0.55,7,Rain,360
2013-5-17,50,48,46,48,47,46,100,96,87,29.71,29.60,29.50,10,5,1,13,7,,0.59,7,Rain,320
2013-5-18,54,48,41,46,46,41,100,87,60,29.84,29.75,29.68,19,7,3,10,6,,0.00,8,,244
2013-5-19,61,48,36,52,46,37,100,84,61,29.86,29.82,29.80,9,5,0,13,6,,0.00,6,Fog,24
2013-5-20,53,51,49,54,51,46,100,98,87,29.81,29.77,29.74,6,3,1,8,4,,0.47,7,Rain,265
2013-5-21,50,49,48,52,49,46,100,97,89,29.92,29.85,29.77,19,4,1,14,6,25,0.08,7,Rain,328
2013-5-22,54,50,46,46,44,39,93,80,65,30.02,29.96,29.92,14,7,4,17,12,28,0.00,7,Rain,325
2013-5-23,50,44,38,43,39,36,100,80,58,29.92,29.81,29.77,19,7,3,15,6,,0.04,5,Rain,310
2013-5-24,53,46,39,45,41,37,93,83,63,29.96,29.83,29.77,19,8,5,16,7,25,0.16,5,Rain,208
2013-5-25,54,46,38,46,42,37,100,84,68,30.05,30.02,29.98,19,7,4,16,8,,0.16,6,Rain,342
2013-5-26,55,50,44,46,45,43,100,84,58,30.01,29.95,29.89,15,7,5,16,11,,0.00,7,Rain,319
2013-5-27,63,52,41,50,42,32,100,68,22,29.89,29.83,29.77,18,6,3,13,6,,0.00,1,,266
2013-5-28,70,57,44,52,46,36,94,64,34,29.77,29.62,29.50,17,7,6,18,9,,0.00,8,,96
2013-5-29,55,52,49,54,50,46,100,93,82,29.63,29.56,29.53,9,6,3,15,8,,0.01,7,Rain,276
2013-5-30,62,56,50,54,51,48,100,86,58,29.87,29.73,29.62,12,4,1,9,5,,0.00,6,Rain,21
2013-5-31,66,58,50,57,52,49,100,88,60,30.02,29.92,29.86,11,5,0,18,9,,0.00,7,Fog,335